Tracking 29494 objects as of 8-Sep-2024
HD Live streaming from Space Station
objects crossing your sky now

DELTA 1 R/B

Track DELTA 1 R/B now!
10-day predictions
DELTA 1 R/B is classified as:


NORAD ID: 20323
Int'l Code: 1989-089B
Perigee: 682.9 km
Apogee: 784.5 km
Inclination: 97.1 °
Period: 99.3 minutes
Semi major axis: 7104 km
RCS: 8.9124 m2 (large)
Launch date: November 18, 1989
Source: United States (US)
Launch site: AIR FORCE WESTERN TEST RANGE (AFWTR)

Note: This is a ROCKET BODY
Your satellite tracking list
Your tracking list is empty




NASA's NSSDC Master Catalog

Two Line Element Set (TLE):
1 20323U 89089B   24251.82604716  .00002691  00000-0  68536-3 0  9991
2 20323  97.1147 173.7145 0071489  52.6282 308.1397 14.49729073836850
Source of the keplerian elements: AFSPC